TIANTONG-1 2

Last updated on Wed Sep 17 2025 00:02:50 GMT+0000 (Coordinated Universal Time)

1 46916U 20082A 25259.47033395 -.00000375 00000+0 00000+0 0 9999 2 46916 1.2899 303.0212 0002144 313.3877 33.4927 1.00271603 17906
UTC large
Height (km)
Speed (km/s)
/
Latitude / Longitude
Inclination (degrees)
Orbital Period (minutes)
Azimuth
Elevation
Range (km)
Doppler Factor

Next 0 passes for location: London (51.5072 / 0.1276)

Sorry there are no passes over London.